Content
SEND FEEDBACK

Daily
Averages
Monthly
Summary
United States of America

CINCINNATI - RIVER PARK, OHIO


Home > North America > United States > Ohio
Elevation: 500 feet     Latitude: 39 07N     Longitude: 084 42W

WEATHER
 
SELECT A DAY
Number of Records: 197,661;   Date Range: 1/1/95 - 7/29/14
 
SHARE

PRINT THIS DATA

[ ← Previous Day ]
WEATHER ALMANAC - JANUARY 31, 2013
[ Next Day → ]
[ °C ]   °F
Weather ElementAverageHighLow
Temperature26.6 °F30.9 °F (2:52 pm)17.1 °F (11:52 pm)
Dewpoint17.9 °F23 °F (8:52 pm)10 °F (9:52 am)
Humidity70.4 %86 % (8:56 pm)51 % (11:52 am)
Barometer29.90 in30.06 in (11:52 pm)29.68 in (1:52 am)
Wind Speed17.6 mph31.1 mph (9:52 pm)
Wind Gust38 mph (9:52 pm)
Weather ElementAverage
Visibility6.5 mi
Wind DirectionW (264.6 °)

Weather ElementTotal
Precipitation---
Heating Degree Days41 (Base 65)
Averaged from 37 records on January 31, 2013
WEATHER CONDITIONS BREAKOUT
WIND DIRECTION BREAKOUT
WEATHER BY HOUR - JANUARY 31, 2013
[ °C ]   °F
Local TimeTemperatureDewpointHumidityBarometerVisibilityWind DirectionWind SpeedGust SpeedPrecipitationEventsConditions
1:52 AM30.0 °F21.9 °F72 %29.68 in10.0 miWest (270°)28.8 mph34.5 mph0.00 inSnowLight Snow
2:52 AM28.0 °F21.0 °F75 %29.72 in9.0 miWest (260°)21.9 mph32.2 mph0.00 inSnowLight Snow
3:52 AM27.0 °F16.0 °F63 %29.75 in10.0 miWest (270°)21.9 mph33.4 mph0.00 inOvercast
4:52 AM27.0 °F17.1 °F66 %29.77 in10.0 miWest (270°)16.1 mph26.5 mph0.00 inOvercast
5:52 AM27.0 °F16.0 °F63 %29.78 in10.0 miWest (270°)18.4 mph28.8 mph0.00 inOvercast
6:52 AM26.1 °F16.0 °F66 %29.83 in8.0 miWest (260°)24.2 mph31.1 mph0.00 inSnowLight Snow
7:52 AM26.1 °F16.0 °F66 %29.86 in8.0 miWest (270°)24.2 mph29.9 mph0.00 inOvercast
8:02 AM26.6 °F15.8 °F64 %29.85 in7.0 miWNW (290°)24.2 mph31.1 mph0.00 inSnowLight Snow
8:29 AM24.8 °F14.0 °F64 %29.87 in9.0 miWNW (290°)16.1 mph24.2 mph0.00 inOvercast
8:52 AM24.1 °F15.1 °F69 %29.91 in9.0 miWest (280°)21.9 mph29.9 mph0.00 inSnowLight Snow
9:52 AM25.0 °F10.0 °F53 %29.94 in10.0 miWSW (250°)15.0 mph20.7 mph0.00 inOvercast
10:52 AM26.1 °F10.9 °F53 %29.95 in10.0 miWest (260°)16.1 mph26.5 mphOvercast
11:52 AM28.0 °F12.0 °F51 %29.95 in10.0 miWSW (250°)15.0 mph27.6 mphOvercast
12:52 PM27.0 °F16.0 °F63 %29.94 in9.0 miSW (230°)13.8 mph26.5 mph0.00 inSnowLight Snow
1:52 PM28.9 °F18.0 °F64 %29.93 in9.0 miWSW (250°)15.0 mph23.0 mph0.00 inSnowLight Snow
2:52 PM30.9 °F19.0 °F61 %29.91 in10.0 miWSW (240°)15.0 mph27.6 mph0.00 inMostly Cloudy
3:18 PM28.4 °F19.4 °F69 %29.91 in3.0 miWSW (250°)17.3 mph26.5 mph0.00 inSnowLight Snow
3:22 PM28.4 °F21.2 °F74 %29.91 in2.0 miWSW (250°)13.8 mph26.5 mph0.00 inSnowLight Snow
3:31 PM28.4 °F21.2 °F74 %29.91 in9.0 miWSW (240°)11.5 mph24.2 mph0.00 inSnowLight Snow
3:52 PM30.0 °F18.0 °F61 %29.92 in10.0 miWSW (240°)12.7 mph27.6 mph0.00 inScattered Clouds
4:52 PM30.0 °F16.0 °F56 %29.92 in10.0 miWSW (240°)16.1 mph24.2 mph0.00 inMostly Cloudy
5:52 PM28.9 °F16.0 °F58 %29.92 in10.0 miWSW (240°)17.3 mph26.5 mph0.00 inOvercast
6:28 PM28.4 °F19.4 °F69 %29.90 in4.0 miSW (230°)12.7 mph19.6 mphSnowLight Snow
6:52 PM28.0 °F21.9 °F78 %29.94 in9.0 miSW (230°)12.7 mph20.7 mph0.00 inSnowLight Snow
7:05 PM28.4 °F21.2 °F74 %29.91 in2.0 miSW (230°)13.8 mph23.0 mph0.00 inSnowLight Snow
7:11 PM26.6 °F21.2 °F80 %29.91 in5.0 miWSW (250°)10.4 mph23.0 mph0.00 inSnowLight Snow
7:52 PM28.0 °F21.0 °F75 %29.93 in9.0 miWSW (240°)11.5 mph0.00 inSnowLight Snow
8:42 PM26.6 °F21.2 °F80 %29.91 in3.0 miWest (260°)9.2 mph0.00 inSnowLight Snow
8:52 PM27.0 °F23.0 °F85 %29.93 in2.0 miWest (270°)12.7 mph0.00 inSnowLight Snow
8:56 PM26.6 °F23.0 °F86 %29.91 in1.0 miWNW (290°)17.3 mph23.0 mph0.00 inSnowLight Snow
9:00 PM26.6 °F23.0 °F86 %29.92 in0.2 miNW (310°)19.6 mph28.8 mph0.00 inFog-SnowHeavy Snow
9:07 PM24.8 °F21.2 °F86 %29.92 in0.8 miWNW (300°)17.3 mph28.8 mph0.00 inSnowLight Snow
9:17 PM24.8 °F19.4 °F80 %29.93 in0.8 miWNW (300°)25.3 mph36.8 mph0.00 inSnowLight Snow
9:39 PM23.0 °F19.4 °F86 %29.94 in0.8 miWNW (290°)18.4 mph0.00 inSnowLight Snow
9:52 PM23.0 °F18.0 °F81 %29.97 in0.8 miWNW (290°)31.1 mph38.0 mph0.00 inSnowLight Snow
10:52 PM19.9 °F14.0 °F78 %30.01 in3.0 miNW (320°)20.7 mph35.7 mph0.00 inSnowLight Snow
11:52 PM17.1 °F10.0 °F74 %30.06 in6.0 miNW (310°)20.7 mph0.00 inSnowLight Snow
Hourly data recorded from KCVG, located miles away from Cincinnati - River Park, Ohio







STORIES FROM OUR PARTNERS